#timestamp,LO_Frequency,Hit,StdDev 
1508187615.1,286047004.1,N
1508187616.0,286047004.1,N
1508187635.8,286047005.7,N
1508187655.6,286047008.3,N
1508187675.5,286047008.4,N
1508187695.3,286047007.8,N
1508187715.1,286047011.5,N
1508187735.9,286047011.6,N
1508187755.7,286047012.1,N
1508187775.5,286047012.0,N
1508187795.4,286047012.4,N
1508187815.2,286047013.4,N
1508187835.0,286047015.5,N
1508187835.9,286047015.5,N
1508187855.8,286047012.9,N
1508187875.6,286047013.3,N
1508187895.4,286047011.4,N
1508187915.2,286047011.4,N
1508187935.1,286047013.6,N
1508187936.0,286047013.6,N
1508187955.8,286047012.8,N
1508187975.6,286047011.3,N
1508187995.5,286047013.4,N
1508188015.3,286047011.6,N
1508188035.1,286047011.1,N
1508188055.9,286047009.9,N
1508188075.7,286047011.4,N
1508188095.5,286047012.7,N
1508188115.4,286047012.5,N
1508188135.2,286047011.8,Y
1508188155.0,286047000.3,P
1508188155.9,286047000.3,N
1508188175.8,286046998.8,N
1508188195.6,286046995.0,N
1508188215.4,286047001.9,N
1508188235.3,286047003.6,N
1508188255.1,286047007.2,N
1508188256.0,286047007.2,N
1508188275.8,286047003.5,N
1508188295.7,286047005.8,N
1508188315.5,286047006.3,N
1508188335.3,286047008.1,N
1508188355.2,286047008.7,N
1508188375.9,286047010.6,N
1508188395.7,286047008.3,N
1508188415.6,286047008.5,N
1508188435.4,286047004.9,N
1508188455.2,286047003.9,N
1508188475.0,286047004.0,N
1508188476.0,286047004.0,N
1508188495.8,286046997.1,N
1508188515.6,286046999.1,N
1508188535.4,286047002.2,N
1508188555.3,286047003.5,N
1508188575.1,286047004.6,N
1508188595.8,286047005.0,N
1508188615.7,286047005.3,N
1508188635.5,286047004.5,N
1508188655.3,286047003.1,N
1508188675.2,286047003.1,N
1508188695.9,286047005.3,N
1508188715.7,286047004.3,N
1508188735.6,286047004.6,N
1508188755.4,286047008.6,N
1508188775.2,286047009.1,Y
1508188795.1,286047004.0,P
1508188796.0,286047004.0,P
1508188815.8,286047001.6,P
1508188835.6,286047001.3,N
1508188855.5,286047002.1,N
1508188875.3,286047003.9,N
1508188895.1,286047003.2,N
1508188915.8,286047001.1,N
1508188935.7,286047000.6,N
1508188955.5,286047002.0,N
1508188975.3,286046999.9,N
1508188995.2,286046998.6,N
1508189015.0,286046999.5,N
1508189015.9,286046999.5,N
1508189035.7,286046998.9,N
1508189055.6,286046998.6,N
1508189075.4,286047000.9,N
1508189095.2,286046998.7,N
1508189115.1,286046997.2,N
1508189116.0,286046997.2,N
1508189135.8,286046996.4,N
1508189155.6,286046994.3,N
1508189175.5,286046991.3,Y
1508189195.3,286046991.0,P
1508189215.1,286046993.2,N
1508189235.9,286046991.8,N
1508189255.7,286046993.9,N
1508189275.5,286046994.0,N
1508189295.4,286046994.3,N
1508189315.2,286046994.6,N
1508189335.0,286046993.7,N
1508189335.9,286046993.7,N
1508189355.8,286046993.4,N
1508189375.6,286046994.2,N
1508189395.4,286046990.5,Y
1508189415.3,286046996.8,P
1508189435.1,286046998.4,N
1508189455.8,286047000.6,N
1508189475.7,286047001.2,N
1508189495.5,286047001.2,N
1508189515.3,286046992.4,N
1508189535.2,286046994.5,N
1508189555.9,286046995.7,N
1508189575.7,286046997.6,N
1508189595.6,286046997.3,N
1508189615.4,286047000.4,N
1508189635.2,286047001.9,N
1508189655.1,286047002.7,N
1508189656.0,286047002.7,N
1508189675.8,286047000.0,N
1508189695.6,286047003.8,N
1508189715.5,286047004.1,N
1508189735.3,286047002.0,N
1508189755.1,286047005.9,N
1508189775.8,286047006.9,N
1508189795.7,286047007.6,N
1508189815.5,286047004.5,N
1508189835.3,286047005.1,N
1508189855.2,286047003.2,N
1508189875.0,286047009.1,N
1508189875.9,286047009.1,N
1508189895.7,286047006.1,N
1508189915.6,286047008.4,N
1508189935.4,286047009.3,N
1508189955.2,286047010.1,N
1508189975.1,286047007.9,N
1508189976.0,286047007.9,N
1508189995.8,286047008.6,N
1508190015.6,286047003.0,N
1508190035.5,286047005.4,N
1508190055.3,286047005.1,N
1508190075.1,286047004.8,N
1508190095.9,286047006.8,N
1508190115.7,286047006.6,N
1508190135.5,286047006.1,N
1508190155.4,286047006.1,N
1508190175.2,286047008.0,Y
1508190195.0,286047003.9,P
1508190195.9,286047003.9,P
1508190215.8,286047003.7,P
1508190235.6,286047004.1,Y
1508190255.4,286047000.4,P
1508190275.3,286047004.2,N
1508190295.1,286047002.9,N
1508190296.0,286047002.9,N
1508190315.8,286047003.8,N
1508190335.7,286047000.1,N
1508190355.5,286047000.2,N
1508190375.3,286047001.8,N
1508190395.2,286047002.0,N
1508190415.9,286046998.1,N
1508190435.7,286047001.0,N
1508190455.6,286047002.3,N
1508190475.4,286047004.0,N
1508190495.2,286046999.9,N
1508190515.0,286047002.5,N
1508190515.9,286047002.5,N
1508190535.8,286046998.5,N
1508190555.6,286047000.2,N
1508190575.4,286046999.2,N
1508190595.3,286046998.8,N
1508190615.1,286046999.6,N
1508190635.8,286046997.0,N
1508190655.7,286047000.7,N
1508190675.5,286046996.9,N
1508190695.3,286046996.5,N
1508190715.2,286047000.7,N
1508190735.9,286047005.9,N
1508190755.7,286047004.3,N
1508190775.6,286047001.3,N
1508190795.4,286047002.2,N
1508190815.2,286047000.1,N
1508190835.1,286047000.6,N
1508190836.0,286047000.6,N
1508190855.8,286046999.0,N
1508190875.6,286047000.5,N
1508190895.5,286046999.8,N
1508190915.3,286047000.6,N
1508190935.1,286046999.2,N
1508190955.8,286046999.5,N
1508190975.7,286046998.9,N
1508190995.5,286046997.5,N
1508191015.3,286046997.7,N
1508191035.2,286046999.3,N
1508191055.0,286046998.4,N
1508191055.9,286046998.4,N
1508191075.7,286046998.4,N
1508191095.6,286046996.7,N
1508191115.4,286046996.9,N
1508191135.2,286046996.8,N
1508191155.1,286046997.8,N
1508191156.0,286046997.8,N
1508191175.8,286046997.7,N
1508191195.6,286046995.6,N
